Time,TemperatureF,DewpointF,PressureIn,WindDirection,WindDirectionDegrees,WindSpeedMPH,WindSpeedGustMPH,Humidity,HourlyPrecipIn,Conditions,Clouds,dailyrainin,SoftwareType,DateUTC
2013-07-01 00:00:00,63.7,63.7,29.93,North,0,0.0,0.0,100,0.00,RA,,0.00,WeatherDisplay:10.37,2013-07-01 04:00:00,
2013-07-01 00:01:00,63.7,63.7,29.93,North,0,0.0,0.0,100,0.00,RA,,0.00,WeatherDisplay:10.37,2013-07-01 04:01:00,
2013-07-01 00:02:00,63.8,63.8,29.93,North,0,0.0,0.0,100,0.00,RA,,0.00,WeatherDisplay:10.37,2013-07-01 04:02:00,
2013-07-01 00:07:00,63.9,63.9,29.93,North,0,0.0,0.0,100,0.00,FEW,,0.00,WeatherDisplay:10.37,2013-07-01 04:07:00,
2013-07-01 00:12:00,63.9,63.9,29.93,North,0,0.0,0.0,100,0.00,CLR,,0.00,WeatherDisplay:10.37,2013-07-01 04:12:00,
2013-07-01 00:17:00,64.1,64.1,29.93,North,0,0.0,0.0,100,0.00,CLR,,0.00,WeatherDisplay:10.37,2013-07-01 04:17:00,
2013-07-01 00:22:00,63.8,63.8,29.93,North,0,0.0,0.0,100,0.00,CLR,,0.00,WeatherDisplay:10.37,2013-07-01 04:22:00,
2013-07-01 00:27:00,63.8,63.8,29.93,North,0,0.0,0.0,100,0.00,CLR,,0.00,WeatherDisplay:10.37,2013-07-01 04:27:00,
2013-07-01 00:32:00,63.8,62.0,29.93,North,0,0.0,0.0,94,0.00,BKN,,0.00,WeatherDisplay:10.37,2013-07-01 04:32:00,
2013-07-01 00:37:00,64.3,62.5,29.93,North,0,0.0,0.0,94,0.00,BKN,,0.00,WeatherDisplay:10.37,2013-07-01 04:37:00,
2013-07-01 00:42:00,64.0,62.2,29.93,North,0,0.0,0.0,94,0.00,BKN,,0.00,WeatherDisplay:10.37,2013-07-01 04:42:00,
2013-07-01 00:47:00,64.2,62.4,29.93,North,0,0.0,0.0,94,0.00,BKN,,0.00,WeatherDisplay:10.37,2013-07-01 04:47:00,
2013-07-01 00:52:00,64.2,62.4,29.93,North,0,0.0,0.0,94,0.00,BKN,,0.00,WeatherDisplay:10.37,2013-07-01 04:52:00,
2013-07-01 00:57:00,63.9,62.1,29.93,North,0,0.0,0.0,94,0.00,BKN,,0.00,WeatherDisplay:10.37,2013-07-01 04:57:00,
2013-07-01 01:02:00,63.9,62.1,29.93,North,0,0.0,0.0,94,0.00,BKN,,0.00,WeatherDisplay:10.37,2013-07-01 05:02:00,
2013-07-01 01:07:00,63.9,62.1,29.93,North,0,0.0,0.0,94,0.00,BKN,,0.00,WeatherDisplay:10.37,2013-07-01 05:07:00,
2013-07-01 01:12:00,64.1,62.9,29.94,North,0,0.0,0.0,96,0.00,SCT,,0.00,WeatherDisplay:10.37,2013-07-01 05:12:00,
2013-07-01 01:17:00,64.1,62.9,29.94,North,0,0.0,0.0,96,0.00,SCT,,0.00,WeatherDisplay:10.37,2013-07-01 05:17:00,
2013-07-01 01:22:00,64.1,62.9,29.94,North,0,0.0,0.0,96,0.00,SCT,,0.00,WeatherDisplay:10.37,2013-07-01 05:22:00,
2013-07-01 01:27:00,63.9,62.7,29.94,North,0,0.0,0.0,96,0.00,SCT,,0.00,WeatherDisplay:10.37,2013-07-01 05:27:00,
2013-07-01 01:32:00,63.6,62.4,29.94,North,0,0.0,0.0,96,0.00,SCT,,0.00,WeatherDisplay:10.37,2013-07-01 05:32:00,
2013-07-01 01:38:00,63.9,62.7,29.94,North,0,0.0,0.0,96,0.00,SCT,,0.00,WeatherDisplay:10.37,2013-07-01 05:38:00,
2013-07-01 01:43:00,63.9,62.7,29.94,North,0,0.0,0.0,96,0.00,SCT,,0.00,WeatherDisplay:10.37,2013-07-01 05:43:00,
2013-07-01 01:48:00,63.9,62.7,29.94,North,0,0.0,0.0,96,0.00,SCT,,0.00,WeatherDisplay:10.37,2013-07-01 05:48:00,
2013-07-01 01:53:00,63.7,62.5,29.94,North,0,0.0,0.0,96,0.00,SCT,,0.00,WeatherDisplay:10.37,2013-07-01 05:53:00,
2013-07-01 01:58:00,63.7,62.5,29.94,North,0,0.0,0.0,96,0.00,SCT,,0.00,WeatherDisplay:10.37,2013-07-01 05:58:00,
2013-07-01 02:03:00,63.8,63.8,29.94,North,0,0.0,0.0,100,0.00,BKN,,0.00,WeatherDisplay:10.37,2013-07-01 06:03:00,
2013-07-01 02:08:00,63.7,63.7,29.94,North,0,0.0,0.0,100,0.00,BKN,,0.00,WeatherDisplay:10.37,2013-07-01 06:08:00,
2013-07-01 02:13:00,63.5,63.5,29.94,North,0,0.0,0.0,100,0.00,BKN,,0.00,WeatherDisplay:10.37,2013-07-01 06:13:00,
2013-07-01 02:18:00,63.3,63.3,29.94,North,0,0.0,0.0,100,0.00,BKN,,0.00,WeatherDisplay:10.37,2013-07-01 06:18:00,
2013-07-01 02:23:00,63.2,63.2,29.94,North,0,0.0,0.0,100,0.00,BKN,,0.00,WeatherDisplay:10.37,2013-07-01 06:23:00,
2013-07-01 02:28:00,63.3,63.3,29.94,North,0,0.0,0.0,100,0.00,BKN,,0.00,WeatherDisplay:10.37,2013-07-01 06:28:00,
2013-07-01 02:33:00,63.2,63.2,29.94,North,0,0.0,0.0,100,0.00,BKN,,0.00,WeatherDisplay:10.37,2013-07-01 06:33:00,
2013-07-01 02:38:00,63.2,63.2,29.94,North,0,0.0,0.0,100,0.00,BKN,,0.00,WeatherDisplay:10.37,2013-07-01 06:38:00,
2013-07-01 02:43:00,63.4,63.4,29.94,North,0,0.0,0.0,100,0.00,BKN,,0.00,WeatherDisplay:10.37,2013-07-01 06:43:00,
2013-07-01 02:48:00,63.4,63.4,29.94,North,0,0.0,0.0,100,0.00,BKN,,0.00,WeatherDisplay:10.37,2013-07-01 06:48:00,
2013-07-01 02:53:00,63.5,63.5,29.94,North,0,0.0,0.0,100,0.00,BKN,,0.00,WeatherDisplay:10.37,2013-07-01 06:53:00,
2013-07-01 02:58:00,63.1,63.1,29.94,North,0,0.0,0.0,100,0.00,BKN,,0.00,WeatherDisplay:10.37,2013-07-01 06:58:00,
2013-07-01 03:03:00,63.1,63.1,29.94,North,0,0.0,0.0,100,0.00,BKN,,0.00,WeatherDisplay:10.37,2013-07-01 07:03:00,
2013-07-01 03:08:00,63.2,63.2,29.94,North,0,0.0,0.0,100,0.00,BKN,,0.00,WeatherDisplay:10.37,2013-07-01 07:08:00,
2013-07-01 03:13:00,63.2,63.2,29.94,North,0,0.0,0.0,100,0.00,BKN,,0.00,WeatherDisplay:10.37,2013-07-01 07:13:00,
2013-07-01 03:18:00,63.3,63.3,29.94,North,0,0.0,0.0,100,0.00,BKN,,0.00,WeatherDisplay:10.37,2013-07-01 07:18:00,
2013-07-01 03:23:00,63.4,63.4,29.94,North,0,0.0,0.0,100,0.00,BKN,,0.00,WeatherDisplay:10.37,2013-07-01 07:23:00,
2013-07-01 03:28:00,63.6,63.6,29.94,North,0,0.0,0.0,100,0.00,BKN,,0.00,WeatherDisplay:10.37,2013-07-01 07:28:00,
2013-07-01 03:33:00,63.6,63.6,29.94,North,0,0.0,0.0,100,0.00,BKN,,0.00,WeatherDisplay:10.37,2013-07-01 07:33:00,
2013-07-01 03:38:00,63.7,63.7,29.94,North,0,0.0,0.0,100,0.00,BKN,,0.00,WeatherDisplay:10.37,2013-07-01 07:38:00,
2013-07-01 03:43:00,63.6,63.6,29.94,North,0,0.0,0.0,100,0.00,BKN,,0.00,WeatherDisplay:10.37,2013-07-01 07:43:00,
2013-07-01 03:48:00,63.4,63.4,29.94,North,0,0.0,0.0,100,0.00,BKN,,0.00,WeatherDisplay:10.37,2013-07-01 07:48:00,
2013-07-01 03:53:00,63.5,63.5,29.94,North,0,0.0,0.0,100,0.00,BKN,,0.00,WeatherDisplay:10.37,2013-07-01 07:53:00,
2013-07-01 03:58:00,63.5,63.5,29.94,North,0,0.0,0.0,100,0.00,BKN,,0.00,WeatherDisplay:10.37,2013-07-01 07:58:00,
2013-07-01 04:03:00,63.6,63.6,29.94,North,0,0.0,0.0,100,0.00,BKN,,0.00,WeatherDisplay:10.37,2013-07-01 08:03:00,
2013-07-01 04:08:00,63.6,63.6,29.94,North,0,0.0,0.0,100,0.00,BKN,,0.00,WeatherDisplay:10.37,2013-07-01 08:08:00,
2013-07-01 04:13:00,63.5,62.3,29.95,North,0,0.0,0.0,96,0.00,CLR,,0.00,WeatherDisplay:10.37,2013-07-01 08:13:00,
2013-07-01 04:18:00,63.4,62.2,29.95,North,0,0.0,0.0,96,0.00,CLR,,0.00,WeatherDisplay:10.37,2013-07-01 08:18:00,
2013-07-01 04:23:00,63.3,62.1,29.95,North,0,0.0,0.0,96,0.00,CLR,,0.00,WeatherDisplay:10.37,2013-07-01 08:23:00,
2013-07-01 04:28:00,63.4,62.2,29.95,North,0,0.0,0.0,96,0.00,CLR,,0.00,WeatherDisplay:10.37,2013-07-01 08:28:00,
2013-07-01 04:33:00,63.5,62.3,29.95,North,0,0.0,0.0,96,0.00,CLR,,0.00,WeatherDisplay:10.37,2013-07-01 08:33:00,
2013-07-01 04:38:00,63.5,62.3,29.95,North,0,0.0,0.0,96,0.00,CLR,,0.00,WeatherDisplay:10.37,2013-07-01 08:38:00,
2013-07-01 04:43:00,63.5,62.3,29.95,North,0,0.0,0.0,96,0.00,CLR,,0.00,WeatherDisplay:10.37,2013-07-01 08:43:00,
2013-07-01 04:48:00,63.5,62.3,29.95,North,0,0.0,0.0,96,0.00,CLR,,0.00,WeatherDisplay:10.37,2013-07-01 08:48:00,
2013-07-01 04:53:00,63.5,62.3,29.95,North,0,0.0,0.0,96,0.00,CLR,,0.00,WeatherDisplay:10.37,2013-07-01 08:53:00,
2013-07-01 04:59:00,63.6,62.4,29.95,North,0,0.0,0.0,96,0.00,CLR,,0.00,WeatherDisplay:10.37,2013-07-01 08:59:00,
2013-07-01 05:04:00,63.6,62.4,29.95,North,0,0.0,0.0,96,0.00,CLR,,0.00,WeatherDisplay:10.37,2013-07-01 09:04:00,
2013-07-01 05:09:00,63.7,62.5,29.95,North,0,0.0,0.0,96,0.00,CLR,,0.00,WeatherDisplay:10.37,2013-07-01 09:09:00,
2013-07-01 05:14:00,63.7,63.7,29.96,North,0,0.0,0.0,100,0.00,CLR,,0.00,WeatherDisplay:10.37,2013-07-01 09:14:00,
2013-07-01 05:19:00,63.5,63.5,29.96,North,0,0.0,0.0,100,0.00,CLR,,0.00,WeatherDisplay:10.37,2013-07-01 09:19:00,
2013-07-01 05:24:00,63.7,63.7,29.96,North,0,0.0,0.0,100,0.00,CLR,,0.00,WeatherDisplay:10.37,2013-07-01 09:24:00,
2013-07-01 05:29:00,63.7,63.7,29.96,North,0,0.0,0.0,100,0.00,CLR,,0.00,WeatherDisplay:10.37,2013-07-01 09:29:00,
2013-07-01 05:34:00,63.7,63.7,29.96,North,0,0.0,0.0,100,0.00,CLR,,0.00,WeatherDisplay:10.37,2013-07-01 09:34:00,
2013-07-01 05:39:00,63.7,63.7,29.96,North,0,0.0,0.0,100,0.00,CLR,,0.00,WeatherDisplay:10.37,2013-07-01 09:39:00,
2013-07-01 05:44:00,63.7,63.7,29.96,North,0,0.0,0.0,100,0.00,FEW,,0.00,WeatherDisplay:10.37,2013-07-01 09:44:00,
2013-07-01 05:49:00,63.9,63.9,29.96,North,0,0.0,0.0,100,0.00,FEW,,0.00,WeatherDisplay:10.37,2013-07-01 09:49:00,
2013-07-01 05:54:00,63.9,63.9,29.96,North,0,0.0,0.0,100,0.00,FEW,,0.00,WeatherDisplay:10.37,2013-07-01 09:54:00,
2013-07-01 05:59:00,64.1,64.1,29.96,North,0,0.0,0.0,100,0.00,FEW,,0.00,WeatherDisplay:10.37,2013-07-01 09:59:00,
2013-07-01 06:04:00,64.2,64.2,29.96,North,0,0.0,0.0,100,0.00,FEW,,0.00,WeatherDisplay:10.37,2013-07-01 10:04:00,
2013-07-01 06:09:00,64.2,64.2,29.96,North,0,0.0,0.0,100,0.00,FEW,,0.00,WeatherDisplay:10.37,2013-07-01 10:09:00,
2013-07-01 06:14:00,64.3,64.3,29.98,North,0,0.0,0.0,100,0.00,BKN,,0.00,WeatherDisplay:10.37,2013-07-01 10:14:00,
2013-07-01 06:19:00,64.3,64.3,29.98,North,0,0.0,0.0,100,0.00,BKN,,0.00,WeatherDisplay:10.37,2013-07-01 10:19:00,
2013-07-01 06:24:00,64.3,64.3,29.98,North,0,0.0,0.0,100,0.00,BKN,,0.00,WeatherDisplay:10.37,2013-07-01 10:24:00,
2013-07-01 06:29:00,64.3,64.3,29.98,North,0,0.0,0.0,100,0.00,BKN,,0.00,WeatherDisplay:10.37,2013-07-01 10:29:00,
2013-07-01 06:34:00,64.4,64.4,29.98,North,0,0.0,0.0,100,0.00,SCT,,0.00,WeatherDisplay:10.37,2013-07-01 10:34:00,
2013-07-01 06:39:00,64.4,64.4,29.98,North,0,0.0,0.0,100,0.00,SCT,,0.00,WeatherDisplay:10.37,2013-07-01 10:39:00,
2013-07-01 06:44:00,64.3,64.3,29.98,North,0,0.0,0.0,100,0.00,SCT,,0.00,WeatherDisplay:10.37,2013-07-01 10:44:00,
2013-07-01 06:49:00,64.3,64.3,29.98,North,0,0.0,0.0,100,0.00,SCT,,0.00,WeatherDisplay:10.37,2013-07-01 10:49:00,
2013-07-01 06:54:00,64.5,64.5,29.98,North,0,0.0,0.0,100,0.00,SCT,,0.00,WeatherDisplay:10.37,2013-07-01 10:54:00,
2013-07-01 06:59:00,64.5,64.5,29.98,North,0,0.0,0.0,100,0.00,SCT,,0.00,WeatherDisplay:10.37,2013-07-01 10:59:00,
2013-07-01 07:04:00,64.5,64.5,29.98,North,0,0.0,0.0,100,0.00,SCT,,0.00,WeatherDisplay:10.37,2013-07-01 11:04:00,
2013-07-01 07:09:00,64.6,64.6,29.98,North,0,0.0,0.0,100,0.00,SCT,,0.00,WeatherDisplay:10.37,2013-07-01 11:09:00,
2013-07-01 07:14:00,64.8,64.8,29.99,North,0,0.0,0.0,100,0.00,FEW,,0.00,WeatherDisplay:10.37,2013-07-01 11:14:00,
2013-07-01 07:19:00,64.8,64.8,29.99,North,0,0.0,0.0,100,0.00,FEW,,0.00,WeatherDisplay:10.37,2013-07-01 11:19:00,
2013-07-01 07:24:00,65.0,65.0,29.99,North,0,0.0,0.0,100,0.00,FEW,,0.00,WeatherDisplay:10.37,2013-07-01 11:24:00,
2013-07-01 07:29:00,65.0,65.0,29.99,North,0,0.0,0.0,100,0.00,FEW,,0.00,WeatherDisplay:10.37,2013-07-01 11:29:00,
2013-07-01 07:34:00,64.9,64.9,29.99,North,0,0.0,0.0,100,0.00,FEW,,0.00,WeatherDisplay:10.37,2013-07-01 11:34:00,
2013-07-01 07:39:00,64.9,64.9,29.99,North,0,0.0,0.0,100,0.00,FEW,,0.00,WeatherDisplay:10.37,2013-07-01 11:39:00,
2013-07-01 07:44:00,65.1,65.1,29.99,North,0,0.0,0.0,100,0.00,FEW,,0.00,WeatherDisplay:10.37,2013-07-01 11:44:00,
2013-07-01 07:49:00,65.2,65.2,29.99,North,0,0.0,0.0,100,0.00,FEW,,0.00,WeatherDisplay:10.37,2013-07-01 11:49:00,
2013-07-01 07:54:00,65.3,65.3,29.99,North,0,0.0,0.0,100,0.00,FEW,,0.00,WeatherDisplay:10.37,2013-07-01 11:54:00,
2013-07-01 07:59:00,65.3,65.3,29.99,North,0,0.0,0.0,100,0.00,FEW,,0.00,WeatherDisplay:10.37,2013-07-01 11:59:00,
2013-07-01 08:04:00,65.6,64.4,29.99,North,0,0.0,0.0,96,0.00,FEW,,0.00,WeatherDisplay:10.37,2013-07-01 12:04:00,
2013-07-01 08:09:00,65.4,64.2,29.99,North,0,0.0,0.0,96,0.00,FEW,,0.00,WeatherDisplay:10.37,2013-07-01 12:09:00,
2013-07-01 08:14:00,65.9,64.7,29.99,North,0,0.0,0.0,96,0.00,FEW,,0.00,WeatherDisplay:10.37,2013-07-01 12:14:00,
2013-07-01 08:19:00,66.1,64.9,29.99,North,0,0.0,0.0,96,0.00,FEW,,0.00,WeatherDisplay:10.37,2013-07-01 12:19:00,
2013-07-01 08:24:00,66.3,65.1,29.99,North,0,0.0,0.0,96,0.00,FEW,,0.00,WeatherDisplay:10.37,2013-07-01 12:24:00,
2013-07-01 08:29:00,66.4,65.2,29.99,North,0,0.0,0.0,96,0.00,FEW,,0.00,WeatherDisplay:10.37,2013-07-01 12:29:00,
2013-07-01 08:34:00,66.2,65.0,29.99,North,0,0.0,0.0,96,0.00,FEW,,0.00,WeatherDisplay:10.37,2013-07-01 12:34:00,
2013-07-01 08:39:00,66.1,64.9,29.99,North,0,0.0,0.0,96,0.00,FEW,,0.00,WeatherDisplay:10.37,2013-07-01 12:39:00,
2013-07-01 08:44:00,66.2,65.0,29.99,North,0,0.0,0.0,96,0.00,FEW,,0.00,WeatherDisplay:10.37,2013-07-01 12:44:00,
2013-07-01 08:49:00,66.3,65.1,29.99,North,0,0.0,0.0,96,0.00,FEW,,0.00,WeatherDisplay:10.37,2013-07-01 12:49:00,
2013-07-01 08:54:00,66.5,65.3,29.99,North,0,0.0,0.0,96,0.00,FEW,,0.00,WeatherDisplay:10.37,2013-07-01 12:54:00,
2013-07-01 08:59:00,66.5,65.3,29.99,North,0,0.0,0.0,96,0.00,FEW,,0.00,WeatherDisplay:10.37,2013-07-01 12:59:00,
2013-07-01 09:04:00,66.5,63.5,30.00,North,0,0.0,0.0,90,0.00,FEW,,0.00,WeatherDisplay:10.37,2013-07-01 13:04:00,
2013-07-01 09:09:00,66.7,63.7,30.00,North,0,0.0,0.0,90,0.00,FEW,,0.00,WeatherDisplay:10.37,2013-07-01 13:09:00,
2013-07-01 09:14:00,67.0,64.0,30.00,North,0,0.0,0.0,90,0.00,FEW,,0.00,WeatherDisplay:10.37,2013-07-01 13:14:00,
2013-07-01 09:19:00,67.4,64.4,30.00,North,0,0.0,0.0,90,0.00,FEW,,0.00,WeatherDisplay:10.37,2013-07-01 13:19:00,
2013-07-01 09:24:00,67.6,64.6,30.00,North,0,0.0,0.0,90,0.00,FEW,,0.00,WeatherDisplay:10.37,2013-07-01 13:24:00,
2013-07-01 09:29:00,67.6,64.6,30.00,North,0,0.0,0.0,90,0.00,FEW,,0.00,WeatherDisplay:10.37,2013-07-01 13:29:00,
2013-07-01 09:34:00,67.6,64.6,30.00,North,0,0.0,0.0,90,0.00,FEW,,0.00,WeatherDisplay:10.37,2013-07-01 13:34:00,
2013-07-01 09:39:00,67.9,64.9,30.00,North,0,0.0,0.0,90,0.00,FEW,,0.00,WeatherDisplay:10.37,2013-07-01 13:39:00,
2013-07-01 09:44:00,67.9,64.9,30.00,North,0,0.0,0.0,90,0.00,FEW,,0.00,WeatherDisplay:10.37,2013-07-01 13:44:00,
2013-07-01 09:49:00,68.8,65.7,30.00,North,0,0.0,0.0,90,0.00,FEW,,0.00,WeatherDisplay:10.37,2013-07-01 13:49:00,
2013-07-01 09:54:00,68.4,65.4,30.00,North,0,0.0,0.0,90,0.00,FEW,,0.00,WeatherDisplay:10.37,2013-07-01 13:54:00,
2013-07-01 09:59:00,68.4,65.4,30.00,North,0,0.0,0.0,90,0.00,FEW,,0.00,WeatherDisplay:10.37,2013-07-01 13:59:00,
2013-07-01 10:04:00,68.5,63.5,30.01,North,0,0.0,0.0,84,0.00,BKN,,0.00,WeatherDisplay:10.37,2013-07-01 14:04:00,
2013-07-01 10:09:00,68.6,63.6,30.01,North,0,0.0,0.0,84,0.00,BKN,,0.00,WeatherDisplay:10.37,2013-07-01 14:09:00,
2013-07-01 10:14:00,68.5,63.1,30.01,North,0,0.0,0.0,83,0.00,BKN,,0.00,WeatherDisplay:10.37,2013-07-01 14:14:00,
2013-07-01 10:19:00,68.3,62.9,30.01,North,0,0.0,0.0,83,0.00,BKN,,0.00,WeatherDisplay:10.37,2013-07-01 14:19:00,
2013-07-01 10:24:00,68.7,63.3,30.01,North,0,0.0,0.0,83,0.00,BKN,,0.00,WeatherDisplay:10.37,2013-07-01 14:24:00,
2013-07-01 10:29:00,68.9,63.5,30.01,North,0,0.0,0.0,83,0.00,BKN,,0.00,WeatherDisplay:10.37,2013-07-01 14:29:00,
2013-07-01 10:34:00,68.9,63.5,30.01,North,0,0.0,0.0,83,0.00,BKN,,0.00,WeatherDisplay:10.37,2013-07-01 14:34:00,
2013-07-01 10:39:00,69.3,63.9,30.01,North,0,0.0,0.0,83,0.00,BKN,,0.00,WeatherDisplay:10.37,2013-07-01 14:39:00,
2013-07-01 10:44:00,69.4,64.0,30.01,North,0,0.0,0.0,83,0.00,BKN,,0.00,WeatherDisplay:10.37,2013-07-01 14:44:00,
2013-07-01 10:49:00,69.7,64.3,30.01,North,0,0.0,0.0,83,0.00,BKN,,0.00,WeatherDisplay:10.37,2013-07-01 14:49:00,
2013-07-01 10:54:00,69.9,62.7,30.01,North,0,0.0,0.0,78,0.00,OVC,,0.00,WeatherDisplay:10.37,2013-07-01 14:54:00,
2013-07-01 10:59:00,69.6,62.4,30.01,North,0,0.0,0.0,78,0.00,OVC,,0.00,WeatherDisplay:10.37,2013-07-01 14:59:00,
2013-07-01 11:04:00,69.5,61.6,30.02,North,0,0.0,0.0,76,0.00,BKN,,0.00,WeatherDisplay:10.37,2013-07-01 15:04:00,
2013-07-01 11:09:00,69.7,61.8,30.02,North,0,0.0,0.0,76,0.00,BKN,,0.00,WeatherDisplay:10.37,2013-07-01 15:09:00,
2013-07-01 11:14:00,69.5,61.6,30.02,North,0,0.0,0.0,76,0.00,BKN,,0.00,WeatherDisplay:10.37,2013-07-01 15:14:00,
2013-07-01 11:19:00,69.8,61.9,30.02,North,0,0.0,0.0,76,0.00,BKN,,0.00,WeatherDisplay:10.37,2013-07-01 15:19:00,
2013-07-01 11:24:00,69.7,60.7,30.02,North,0,0.0,0.0,73,0.00,BKN,,0.00,WeatherDisplay:10.37,2013-07-01 15:24:00,
2013-07-01 11:29:00,69.6,60.6,30.02,North,0,0.0,0.0,73,0.00,BKN,,0.00,WeatherDisplay:10.37,2013-07-01 15:29:00,
2013-07-01 11:34:00,70.2,61.1,30.02,North,0,0.0,0.0,73,0.00,BKN,,0.00,WeatherDisplay:10.37,2013-07-01 15:34:00,
2013-07-01 11:39:00,70.1,61.0,30.02,North,0,0.0,0.0,73,0.00,BKN,,0.00,WeatherDisplay:10.37,2013-07-01 15:39:00,
2013-07-01 11:44:00,70.8,65.4,30.03,North,0,0.0,0.0,83,0.00,OVC,,0.00,WeatherDisplay:10.37,2013-07-01 15:44:00,
2013-07-01 11:49:00,70.9,65.5,30.03,North,0,0.0,0.0,83,0.00,OVC,,0.00,WeatherDisplay:10.37,2013-07-01 15:49:00,
2013-07-01 11:54:00,70.7,65.3,30.03,North,0,0.0,0.0,83,0.00,OVC,,0.00,WeatherDisplay:10.37,2013-07-01 15:54:00,
2013-07-01 11:59:00,71.1,65.7,30.03,North,0,0.0,0.0,83,0.00,OVC,,0.00,WeatherDisplay:10.37,2013-07-01 15:59:00,
2013-07-01 12:04:00,71.2,64.4,30.02,North,0,0.0,0.0,79,0.00,OVC,,0.00,WeatherDisplay:10.37,2013-07-01 16:04:00,
2013-07-01 12:09:00,71.1,64.3,30.02,North,0,0.0,0.0,79,0.00,OVC,,0.00,WeatherDisplay:10.37,2013-07-01 16:09:00,
2013-07-01 12:14:00,71.0,64.2,30.02,North,0,0.0,0.0,79,0.00,OVC,,0.00,WeatherDisplay:10.37,2013-07-01 16:14:00,
2013-07-01 12:19:00,70.9,64.1,30.02,North,0,0.0,0.0,79,0.00,OVC,,0.00,WeatherDisplay:10.37,2013-07-01 16:19:00,
2013-07-01 12:24:00,70.9,64.1,30.02,North,0,0.0,0.0,79,0.00,OVC,,0.00,WeatherDisplay:10.37,2013-07-01 16:24:00,
2013-07-01 12:29:00,71.1,64.3,30.02,North,0,0.0,0.0,79,0.00,OVC,,0.00,WeatherDisplay:10.37,2013-07-01 16:29:00,
2013-07-01 12:34:00,71.3,64.4,30.02,North,0,0.0,0.0,79,0.00,OVC,,0.00,WeatherDisplay:10.37,2013-07-01 16:34:00,
2013-07-01 12:39:00,71.2,64.4,30.02,North,0,0.0,0.0,79,0.00,OVC,,0.00,WeatherDisplay:10.37,2013-07-01 16:39:00,
2013-07-01 12:44:00,71.2,64.4,30.02,North,0,0.0,0.0,79,0.00,OVC,,0.00,WeatherDisplay:10.37,2013-07-01 16:44:00,
2013-07-01 12:49:00,71.2,64.4,30.02,North,0,0.0,0.0,79,0.00,OVC,,0.00,WeatherDisplay:10.37,2013-07-01 16:49:00,
2013-07-01 12:54:00,71.1,64.3,30.02,North,0,0.0,0.0,79,0.00,OVC,,0.00,WeatherDisplay:10.37,2013-07-01 16:54:00,
2013-07-01 12:59:00,71.2,64.4,30.02,North,0,0.0,0.0,79,0.00,OVC,,0.00,WeatherDisplay:10.37,2013-07-01 16:59:00,
2013-07-01 13:04:00,71.2,66.1,30.02,North,0,0.0,0.0,84,0.00,-RA,,0.00,WeatherDisplay:10.37,2013-07-01 17:04:00,
2013-07-01 13:09:00,71.1,66.0,30.02,North,0,0.0,0.0,84,0.00,-RA,,0.00,WeatherDisplay:10.37,2013-07-01 17:09:00,
2013-07-01 13:14:00,71.1,66.0,30.02,North,0,0.0,0.0,84,0.00,-RA,,0.00,WeatherDisplay:10.37,2013-07-01 17:14:00,
2013-07-01 13:19:00,71.1,66.0,30.02,North,0,0.0,0.0,84,0.00,-RA,,0.00,WeatherDisplay:10.37,2013-07-01 17:19:00,
2013-07-01 13:24:00,71.1,66.0,30.02,North,0,0.0,0.0,84,0.00,-RA,,0.00,WeatherDisplay:10.37,2013-07-01 17:24:00,
2013-07-01 13:29:00,71.4,66.3,30.02,North,0,0.0,0.0,84,0.00,-RA,,0.00,WeatherDisplay:10.37,2013-07-01 17:29:00,
2013-07-01 13:34:00,71.6,66.5,30.02,North,0,0.0,0.0,84,0.00,-RA,,0.00,WeatherDisplay:10.37,2013-07-01 17:34:00,
2013-07-01 13:39:00,71.9,66.8,30.02,North,0,0.0,0.0,84,0.00,-RA,,0.00,WeatherDisplay:10.37,2013-07-01 17:39:00,
2013-07-01 13:44:00,72.0,66.9,30.02,North,0,0.0,0.0,84,0.00,-RA,,0.00,WeatherDisplay:10.37,2013-07-01 17:44:00,
2013-07-01 13:49:00,71.8,66.7,30.02,North,0,0.0,0.0,84,0.00,-RA,,0.00,WeatherDisplay:10.37,2013-07-01 17:49:00,
2013-07-01 13:54:00,71.9,66.8,30.02,North,0,0.0,0.0,84,0.00,-RA,,0.00,WeatherDisplay:10.37,2013-07-01 17:54:00,
2013-07-01 13:59:00,72.0,66.9,30.02,North,0,0.0,0.0,84,0.00,-RA,,0.00,WeatherDisplay:10.37,2013-07-01 17:59:00,
2013-07-01 14:04:00,72.0,67.9,30.03,North,0,0.0,0.0,87,0.00,-RA,,0.00,WeatherDisplay:10.37,2013-07-01 18:04:00,
2013-07-01 14:09:00,72.1,68.0,30.03,North,0,0.0,0.0,87,0.00,-RA,,0.00,WeatherDisplay:10.37,2013-07-01 18:09:00,
2013-07-01 14:14:00,71.6,67.5,30.03,North,0,0.0,0.0,87,0.00,-RA,,0.00,WeatherDisplay:10.37,2013-07-01 18:14:00,
2013-07-01 14:19:00,71.6,67.5,30.03,North,0,0.0,0.0,87,0.00,-RA,,0.00,WeatherDisplay:10.37,2013-07-01 18:19:00,
2013-07-01 14:24:00,71.7,68.0,30.02,North,0,0.0,0.0,88,0.00,OVC,,0.00,WeatherDisplay:10.37,2013-07-01 18:24:00,
2013-07-01 14:29:00,71.8,68.1,30.02,North,0,0.0,0.0,88,0.00,OVC,,0.00,WeatherDisplay:10.37,2013-07-01 18:29:00,
2013-07-01 14:34:00,71.9,68.2,30.02,North,0,0.0,0.0,88,0.00,OVC,,0.00,WeatherDisplay:10.37,2013-07-01 18:34:00,
2013-07-01 14:39:00,71.7,68.0,30.02,North,0,0.0,0.0,88,0.00,OVC,,0.00,WeatherDisplay:10.37,2013-07-01 18:39:00,
2013-07-01 14:44:00,71.8,68.1,30.02,North,0,0.0,0.0,88,0.00,OVC,,0.00,WeatherDisplay:10.37,2013-07-01 18:44:00,
2013-07-01 14:49:00,72.5,68.7,30.02,North,0,0.0,0.0,88,0.00,OVC,,0.00,WeatherDisplay:10.37,2013-07-01 18:49:00,
2013-07-01 14:54:00,72.1,68.3,30.02,North,0,2.3,2.3,88,0.00,-RA,,0.00,WeatherDisplay:10.37,2013-07-01 18:54:00,
2013-07-01 14:59:00,72.3,68.5,30.02,North,0,2.3,2.3,88,0.00,-RA,,0.00,WeatherDisplay:10.37,2013-07-01 18:59:00,
2013-07-01 15:04:00,72.4,68.6,30.02,North,0,1.1,1.1,88,0.00,-RA,,0.00,WeatherDisplay:10.37,2013-07-01 19:04:00,
2013-07-01 15:09:00,72.4,68.6,30.02,North,0,2.3,2.3,88,0.00,-RA,,0.00,WeatherDisplay:10.37,2013-07-01 19:09:00,
2013-07-01 15:14:00,72.5,70.4,30.02,North,0,0.0,0.0,93,0.00,-RA,,0.00,WeatherDisplay:10.37,2013-07-01 19:14:00,
2013-07-01 15:19:00,72.6,70.5,30.02,North,0,2.3,2.3,93,0.00,-RA,,0.00,WeatherDisplay:10.37,2013-07-01 19:19:00,
2013-07-01 15:24:00,72.4,70.3,30.02,North,0,0.0,0.0,93,0.00,-RA,,0.00,WeatherDisplay:10.37,2013-07-01 19:24:00,
2013-07-01 15:29:00,72.1,70.0,30.02,North,0,0.0,0.0,93,0.00,-RA,,0.00,WeatherDisplay:10.37,2013-07-01 19:29:00,
2013-07-01 15:34:00,71.7,69.6,30.02,North,0,0.0,0.0,93,0.00,-RA,,0.00,WeatherDisplay:10.37,2013-07-01 19:34:00,
2013-07-01 15:39:00,71.8,69.7,30.02,North,0,0.0,0.0,93,0.00,-RA,,0.00,WeatherDisplay:10.37,2013-07-01 19:39:00,
2013-07-01 15:44:00,72.2,70.1,30.02,North,0,1.1,1.1,93,0.00,-RA,,0.00,WeatherDisplay:10.37,2013-07-01 19:44:00,
2013-07-01 15:49:00,72.1,70.0,30.02,North,0,0.0,0.0,93,0.00,-RA,,0.00,WeatherDisplay:10.37,2013-07-01 19:49:00,
2013-07-01 15:54:00,71.9,69.8,30.02,North,0,0.0,0.0,93,0.00,-RA,,0.00,WeatherDisplay:10.37,2013-07-01 19:54:00,
2013-07-01 15:59:00,72.0,69.9,30.02,North,0,0.0,0.0,93,0.00,-RA,,0.00,WeatherDisplay:10.37,2013-07-01 19:59:00,
2013-07-01 16:04:00,72.7,68.6,30.02,North,0,0.0,0.0,87,0.00,-RA,,0.00,WeatherDisplay:10.37,2013-07-01 20:04:00,
2013-07-01 16:09:00,72.5,68.4,30.02,North,0,0.0,0.0,87,0.00,-RA,,0.00,WeatherDisplay:10.37,2013-07-01 20:09:00,
2013-07-01 16:14:00,72.1,68.0,30.02,North,0,0.0,0.0,87,0.00,-RA,,0.00,WeatherDisplay:10.37,2013-07-01 20:14:00,
2013-07-01 16:19:00,72.0,67.9,30.02,North,0,0.0,0.0,87,0.00,-RA,,0.00,WeatherDisplay:10.37,2013-07-01 20:19:00,
2013-07-01 16:24:00,72.8,68.7,30.02,North,0,0.0,0.0,87,0.00,-RA,,0.00,WeatherDisplay:10.37,2013-07-01 20:24:00,
2013-07-01 16:29:00,72.2,68.1,30.02,North,0,0.0,0.0,87,0.00,-RA,,0.00,WeatherDisplay:10.37,2013-07-01 20:29:00,
2013-07-01 16:34:00,71.8,67.7,30.02,North,0,0.0,0.0,87,0.00,-RA,,0.00,WeatherDisplay:10.37,2013-07-01 20:34:00,
2013-07-01 16:39:00,71.7,67.6,30.02,North,0,0.0,0.0,87,0.00,-RA,,0.00,WeatherDisplay:10.37,2013-07-01 20:39:00,
2013-07-01 16:44:00,72.2,68.4,30.01,North,0,1.1,1.1,88,0.00,-RA,,0.00,WeatherDisplay:10.37,2013-07-01 20:44:00,
2013-07-01 16:49:00,72.3,68.5,30.01,North,0,0.0,0.0,88,0.00,-RA,,0.00,WeatherDisplay:10.37,2013-07-01 20:49:00,
2013-07-01 16:54:00,72.1,68.3,30.01,North,0,0.0,0.0,88,0.00,-RA,,0.00,WeatherDisplay:10.37,2013-07-01 20:54:00,
2013-07-01 16:59:00,72.3,68.5,30.01,North,0,0.0,0.0,88,0.00,-RA,,0.00,WeatherDisplay:10.37,2013-07-01 20:59:00,
2013-07-01 17:04:00,72.4,68.3,30.01,North,0,0.0,0.0,87,0.00,OVC,,0.00,WeatherDisplay:10.37,2013-07-01 21:04:00,
2013-07-01 17:09:00,72.4,68.3,30.01,North,0,0.0,0.0,87,0.00,OVC,,0.00,WeatherDisplay:10.37,2013-07-01 21:09:00,
2013-07-01 17:14:00,72.5,68.4,30.01,North,0,1.1,1.1,87,0.00,OVC,,0.00,WeatherDisplay:10.37,2013-07-01 21:14:00,
2013-07-01 17:19:00,72.6,68.5,30.01,North,0,0.0,0.0,87,0.00,OVC,,0.00,WeatherDisplay:10.37,2013-07-01 21:19:00,
2013-07-01 17:24:00,73.3,69.2,30.01,North,0,0.0,0.0,87,0.00,OVC,,0.00,WeatherDisplay:10.37,2013-07-01 21:24:00,
2013-07-01 17:29:00,73.1,69.0,30.01,North,0,1.1,1.1,87,0.00,OVC,,0.00,WeatherDisplay:10.37,2013-07-01 21:29:00,
2013-07-01 17:34:00,72.5,68.4,30.01,North,0,2.3,2.3,87,0.00,OVC,,0.00,WeatherDisplay:10.37,2013-07-01 21:34:00,
2013-07-01 17:39:00,73.2,69.1,30.01,North,0,1.1,1.1,87,0.00,OVC,,0.00,WeatherDisplay:10.37,2013-07-01 21:39:00,
2013-07-01 17:44:00,73.3,71.5,30.01,North,0,0.0,0.0,94,0.00, +RA,,0.00,WeatherDisplay:10.37,2013-07-01 21:44:00,
2013-07-01 17:49:00,72.8,71.0,30.01,North,0,1.1,1.1,94,0.00, +RA,,0.00,WeatherDisplay:10.37,2013-07-01 21:49:00,
2013-07-01 17:54:00,72.4,70.6,30.01,North,0,0.0,0.0,94,0.00, +RA,,0.00,WeatherDisplay:10.37,2013-07-01 21:54:00,
2013-07-01 17:59:00,72.3,70.5,30.01,North,0,0.0,0.0,94,0.00, +RA,,0.00,WeatherDisplay:10.37,2013-07-01 21:59:00,
2013-07-01 18:04:00,73.2,72.0,30.02,North,0,1.0,1.0,96,0.00, +RA,,0.00,WeatherDisplay:10.37,2013-07-01 22:04:00,
2013-07-01 18:09:00,72.4,71.2,30.02,North,0,3.5,3.5,96,0.00, +RA,,0.00,WeatherDisplay:10.37,2013-07-01 22:09:00,
2013-07-01 18:14:00,72.2,71.0,30.02,North,0,2.3,2.3,96,0.00, +RA,,0.00,WeatherDisplay:10.37,2013-07-01 22:14:00,
2013-07-01 18:19:00,72.1,70.9,30.02,North,0,2.0,2.0,96,0.00, +RA,,0.00,WeatherDisplay:10.37,2013-07-01 22:19:00,
2013-07-01 18:24:00,72.8,72.8,30.03,North,1,1.1,0.0,100,0.00,-RA,,0.00,WeatherDisplay:10.37,2013-07-01 22:24:00,
2013-07-01 18:29:00,72.1,72.1,30.03,North,1,0.0,0.0,100,0.00,-RA,,0.00,WeatherDisplay:10.37,2013-07-01 22:29:00,
2013-07-01 18:34:00,72.5,72.5,30.03,North,1,1.1,0.0,100,0.00, +RA,,0.00,WeatherDisplay:10.37,2013-07-01 22:34:00,
2013-07-01 18:39:00,71.7,71.7,30.03,North,1,0.0,0.0,100,0.00, +RA,,0.00,WeatherDisplay:10.37,2013-07-01 22:39:00,
2013-07-01 18:44:00,72.1,72.1,30.03,North,1,1.1,1.1,100,0.00, +RA,,0.00,WeatherDisplay:10.37,2013-07-01 22:44:00,
2013-07-01 18:49:00,70.5,70.5,30.03,North,1,0.0,0.1,100,0.01, +RA,,0.01,WeatherDisplay:10.37,2013-07-01 22:49:00,
2013-07-01 18:54:00,69.2,69.2,30.02,North,1,1.1,0.0,100,0.08,-RA,,0.09,WeatherDisplay:10.37,2013-07-01 22:54:00,
2013-07-01 18:59:00,68.5,68.5,30.02,NE,35,3.5,3.5,100,0.19,-RA,,0.20,WeatherDisplay:10.37,2013-07-01 22:59:00,
2013-07-01 19:04:00,68.8,67.6,30.02,NE,35,0.0,0.0,96,0.28,RA,,0.29,WeatherDisplay:10.37,2013-07-01 23:04:00,
2013-07-01 19:09:00,68.3,67.1,30.02,NE,35,0.0,0.1,96,0.33,RA,,0.34,WeatherDisplay:10.37,2013-07-01 23:09:00,
2013-07-01 19:14:00,68.1,68.1,30.03,NE,35,0.0,0.0,100,0.41,-RA,,0.41,WeatherDisplay:10.37,2013-07-01 23:14:00,
2013-07-01 19:19:00,67.9,67.9,30.03,NE,35,1.1,1.1,100,0.45,-RA,,0.46,WeatherDisplay:10.37,2013-07-01 23:19:00,
2013-07-01 19:24:00,67.9,67.9,30.03,NE,35,2.3,2.3,100,0.47,-RA,,0.47,WeatherDisplay:10.37,2013-07-01 23:24:00,
2013-07-01 19:29:00,68.1,68.1,30.03,NE,35,1.1,1.1,100,0.47,-RA,,0.47,WeatherDisplay:10.37,2013-07-01 23:29:00,
2013-07-01 19:34:00,67.9,67.9,30.03,NE,35,1.1,1.1,100,0.47,-RA,,0.47,WeatherDisplay:10.37,2013-07-01 23:34:00,
2013-07-01 19:39:00,67.9,67.9,30.03,NE,38,1.1,1.1,100,0.47,-RA,,0.47,WeatherDisplay:10.37,2013-07-01 23:39:00,
2013-07-01 19:44:00,68.0,68.0,30.03,NE,38,1.1,0.0,100,0.47,-RA,,0.47,WeatherDisplay:10.37,2013-07-01 23:44:00,
2013-07-01 19:49:00,68.5,68.5,30.03,NE,38,0.0,0.0,100,0.46,-RA,,0.47,WeatherDisplay:10.37,2013-07-01 23:49:00,
2013-07-01 19:54:00,67.9,67.9,30.03,NE,38,1.1,1.1,100,0.40,-RA,,0.48,WeatherDisplay:10.37,2013-07-01 23:54:00,
2013-07-01 19:59:00,67.7,67.7,30.03,NE,38,0.0,0.0,100,0.29,-RA,,0.48,WeatherDisplay:10.37,2013-07-01 23:59:00,
2013-07-01 20:04:00,67.6,67.6,30.04,NE,38,0.0,0.0,100,0.20,-RA,,0.48,WeatherDisplay:10.37,2013-07-02 00:04:00,
2013-07-01 20:09:00,67.6,67.6,30.04,NE,38,0.0,0.0,100,0.15,-RA,,0.48,WeatherDisplay:10.37,2013-07-02 00:09:00,
2013-07-01 20:14:00,67.5,67.5,30.04,NE,38,0.0,0.0,100,0.07,-RA,,0.48,WeatherDisplay:10.37,2013-07-02 00:14:00,
2013-07-01 20:19:00,67.4,67.4,30.04,NE,38,0.0,0.0,100,0.03,-RA,,0.48,WeatherDisplay:10.37,2013-07-02 00:19:00,
2013-07-01 20:24:00,67.4,67.4,30.04,NE,38,0.0,0.0,100,0.01,-RA,,0.48,WeatherDisplay:10.37,2013-07-02 00:24:00,
2013-07-01 20:29:00,67.5,67.5,30.04,NE,38,0.0,0.0,100,0.01,-RA,,0.48,WeatherDisplay:10.37,2013-07-02 00:29:00,
2013-07-01 20:34:00,67.5,67.5,30.04,NE,38,0.0,0.0,100,0.01,-RA,,0.48,WeatherDisplay:10.37,2013-07-02 00:34:00,
2013-07-01 20:39:00,67.5,67.5,30.04,NE,38,0.0,0.0,100,0.01,-RA,,0.48,WeatherDisplay:10.37,2013-07-02 00:39:00,
2013-07-01 20:44:00,67.2,67.2,30.05,NE,38,0.0,0.0,100,0.01,OVC,,0.48,WeatherDisplay:10.37,2013-07-02 00:44:00,
2013-07-01 20:49:00,67.4,67.4,30.05,NE,38,0.0,0.0,100,0.01,OVC,,0.48,WeatherDisplay:10.37,2013-07-02 00:49:00,
2013-07-01 20:54:00,67.3,67.3,30.05,NE,38,0.0,0.0,100,0.00,OVC,,0.48,WeatherDisplay:10.37,2013-07-02 00:54:00,
2013-07-01 20:59:00,67.1,67.1,30.05,NE,38,0.0,0.0,100,0.00,OVC,,0.48,WeatherDisplay:10.37,2013-07-02 00:59:00,
2013-07-01 21:04:00,67.0,65.8,30.06,NE,38,0.0,0.0,96,0.00,OVC,,0.48,WeatherDisplay:10.37,2013-07-02 01:04:00,
2013-07-01 21:09:00,67.3,66.1,30.06,NE,38,0.0,0.0,96,0.00,OVC,,0.48,WeatherDisplay:10.37,2013-07-02 01:09:00,
2013-07-01 21:14:00,67.2,66.0,30.06,NE,38,0.0,0.0,96,0.00,OVC,,0.48,WeatherDisplay:10.37,2013-07-02 01:14:00,
2013-07-01 21:19:00,67.1,65.9,30.06,NE,38,0.0,0.0,96,0.00,OVC,,0.48,WeatherDisplay:10.37,2013-07-02 01:19:00,
2013-07-01 21:24:00,67.1,65.9,30.06,NE,38,0.0,0.0,96,0.00,OVC,,0.48,WeatherDisplay:10.37,2013-07-02 01:24:00,
2013-07-01 21:29:00,67.1,65.9,30.06,NE,38,0.0,0.0,96,0.00,OVC,,0.48,WeatherDisplay:10.37,2013-07-02 01:29:00,
2013-07-01 21:34:00,67.0,65.8,30.06,NE,38,0.0,0.0,96,0.00,OVC,,0.48,WeatherDisplay:10.37,2013-07-02 01:34:00,
2013-07-01 21:39:00,67.6,66.4,30.06,NE,38,0.0,0.0,96,0.00,OVC,,0.48,WeatherDisplay:10.37,2013-07-02 01:39:00,
2013-07-01 21:44:00,67.5,66.3,30.06,NE,38,0.0,0.0,96,0.00,OVC,,0.48,WeatherDisplay:10.37,2013-07-02 01:44:00,
2013-07-01 21:49:00,67.6,66.4,30.06,NE,38,0.0,0.0,96,0.00,OVC,,0.48,WeatherDisplay:10.37,2013-07-02 01:49:00,
2013-07-01 21:54:00,68.1,66.9,30.06,NE,38,0.0,0.0,96,0.00,OVC,,0.48,WeatherDisplay:10.37,2013-07-02 01:54:00,
2013-07-01 21:59:00,67.8,66.6,30.06,NE,38,0.0,0.0,96,0.00,OVC,,0.48,WeatherDisplay:10.37,2013-07-02 01:59:00,
2013-07-01 22:04:00,67.8,66.6,30.06,NE,38,0.0,0.0,96,0.00,OVC,,0.48,WeatherDisplay:10.37,2013-07-02 02:04:00,
2013-07-01 22:09:00,67.6,66.4,30.06,NE,38,0.0,0.0,96,0.00,OVC,,0.48,WeatherDisplay:10.37,2013-07-02 02:09:00,
2013-07-01 22:14:00,67.4,67.4,30.06,NE,38,0.0,0.0,100,0.00,OVC,,0.48,WeatherDisplay:10.37,2013-07-02 02:14:00,
2013-07-01 22:19:00,67.3,67.3,30.06,NE,38,0.0,0.0,100,0.00,OVC,,0.48,WeatherDisplay:10.37,2013-07-02 02:19:00,
2013-07-01 22:24:00,67.2,67.2,30.07,NE,38,0.0,0.0,100,0.00,OVC,,0.48,WeatherDisplay:10.37,2013-07-02 02:24:00,
2013-07-01 22:29:00,67.2,67.2,30.07,NE,38,0.0,0.0,100,0.00,OVC,,0.48,WeatherDisplay:10.37,2013-07-02 02:29:00,
2013-07-01 22:34:00,67.2,67.2,30.07,NE,38,0.0,0.0,100,0.00,OVC,,0.48,WeatherDisplay:10.37,2013-07-02 02:34:00,
2013-07-01 22:39:00,67.3,67.3,30.07,NE,38,0.0,0.0,100,0.00,OVC,,0.48,WeatherDisplay:10.37,2013-07-02 02:39:00,
2013-07-01 22:44:00,67.3,67.3,30.07,NE,38,0.0,0.0,100,0.00,OVC,,0.48,WeatherDisplay:10.37,2013-07-02 02:44:00,
2013-07-01 22:49:00,67.3,67.3,30.07,NE,38,0.0,0.0,100,0.00,OVC,,0.48,WeatherDisplay:10.37,2013-07-02 02:49:00,
2013-07-01 22:54:00,67.3,67.3,30.07,NE,38,0.0,0.0,100,0.00,OVC,,0.48,WeatherDisplay:10.37,2013-07-02 02:54:00,
2013-07-01 22:59:00,67.6,67.6,30.07,NE,38,0.0,0.0,100,0.00,OVC,,0.48,WeatherDisplay:10.37,2013-07-02 02:59:00,
2013-07-01 23:04:00,67.6,67.6,30.07,NE,38,0.0,0.0,100,0.00,OVC,,0.48,WeatherDisplay:10.37,2013-07-02 03:04:00,
2013-07-01 23:09:00,67.5,67.5,30.07,NE,38,0.0,0.0,100,0.00,OVC,,0.48,WeatherDisplay:10.37,2013-07-02 03:09:00,
2013-07-01 23:14:00,67.5,67.5,30.07,NE,38,0.0,0.0,100,0.00,OVC,,0.48,WeatherDisplay:10.37,2013-07-02 03:14:00,
2013-07-01 23:19:00,67.9,67.9,30.07,NE,38,0.0,0.0,100,0.00,OVC,,0.48,WeatherDisplay:10.37,2013-07-02 03:19:00,
2013-07-01 23:24:00,67.6,67.6,30.07,NE,38,0.0,0.0,100,0.00,OVC,,0.48,WeatherDisplay:10.37,2013-07-02 03:24:00,
2013-07-01 23:29:00,67.3,67.3,30.07,NE,38,0.0,0.0,100,0.00,OVC,,0.48,WeatherDisplay:10.37,2013-07-02 03:29:00,
2013-07-01 23:34:00,67.3,67.3,30.07,NE,38,0.0,0.0,100,0.00,OVC,,0.48,WeatherDisplay:10.37,2013-07-02 03:34:00,
2013-07-01 23:39:00,67.7,67.7,30.07,NE,38,0.0,0.0,100,0.00,OVC,,0.48,WeatherDisplay:10.37,2013-07-02 03:39:00,
2013-07-01 23:44:00,67.8,67.8,30.07,NE,38,0.0,0.0,100,0.00,OVC,,0.48,WeatherDisplay:10.37,2013-07-02 03:44:00,
2013-07-01 23:49:00,67.6,67.6,30.07,NE,38,0.0,0.0,100,0.00,OVC,,0.48,WeatherDisplay:10.37,2013-07-02 03:49:00,
2013-07-01 23:54:00,67.6,67.6,30.07,NE,38,0.0,0.0,100,0.00,OVC,,0.48,WeatherDisplay:10.37,2013-07-02 03:54:00,
2013-07-01 23:59:00,67.7,67.7,30.07,NE,38,0.0,0.0,100,0.00,OVC,,0.48,WeatherDisplay:10.37,2013-07-02 03:59:00,